[[{"header":{"parameterUnit":"m.s-1","parameterCategory":1,"la1":30.2991,"la2":30.254,"lo1":-89.0895,"lo2":-89.0444,"dy":0.0017,"dx":0.0017,"nx":28,"ny":28,"refTime":"2024-07-29T21:00:00:Z","depth":0,"parameterNumber":2,"parameterNumberName":"U-component_of_WINDS"},"data":[0,0,0,0,0,0,0,0,0,0,0,0,0,0,0,0,0,0,0,0,0,0,0,0,0,0,0,0,0,0,0,0,0,0,0,0,0,0,0,0,0,0,0,0,0,0,0,0,0,0,0,0,0,0,0,0,0,0,2.3635,2.3635,0,2.3693,2.3694,2.3694,2.3656,2.3655,2.3653,2.3651,2.371,2.3714,2.3717,0,0,0,0,0,0,0,0,0,0,0,0,0,2.3489,2.3492,2.3635,2.3635,2.3636,2.3693,2.3694,2.3694,2.3657,2.3654,2.3652,2.365,2.3709,2.3713,2.3717,0,0,0,0,0,0,0,0,0,0,0,0,0,2.355,2.3493,2.3634,2.3624,2.3624,2.3693,2.3694,2.3695,2.3657,2.3654,2.3652,2.3649,2.3708,2.3713,2.3718,2.38,0,0,2.3732,2.3734,0,0,0,0,0,0,0,0,2.3547,2.3556,2.3625,2.3625,2.3625,2.3665,2.3664,2.373,2.3658,2.3644,2.3651,2.3648,2.3697,2.3703,2.372,2.3803,2.3805,2.3733,2.3736,2.3738,2.3739,0,0,0,0,0,0,0,2.3543,2.3553,2.3658,2.3626,2.3626,2.3616,2.3622,2.3676,2.3685,2.3645,2.3643,2.365,2.3697,2.3715,2.3721,2.3806,2.3733,2.3737,2.374,2.3742,2.3958,2.3961,0,0,0,0,0,0,2.354,2.355,2.3656,2.3659,2.3579,2.3621,2.3627,2.3654,2.3684,2.3686,2.3652,2.3648,2.3708,2.3715,2.3723,2.382,2.3738,2.3742,2.3745,2.3955,2.3959,2.3962,0,0,0,0,0,0,2.3537,2.3549,2.3653,2.3604,2.3616,2.3626,2.3657,2.3657,2.3675,2.3689,2.3691,2.3669,2.3706,2.3716,2.3781,2.3821,2.3744,2.3749,2.3952,2.3956,2.396,2.4015,0,0,0,0,0,0,2.3533,2.3549,2.358,2.3605,2.3619,2.3711,2.3659,2.366,2.3684,2.3679,2.3706,2.3708,2.3705,2.3774,2.3785,2.3826,2.3753,2.3948,2.3954,2.3959,2.401,2.4021,2.403,0,0,0,0,0,2.3528,2.3594,2.3582,2.3595,2.3659,2.3713,2.3721,2.3717,2.3687,2.3719,2.3728,2.3707,2.3815,2.3781,2.3794,2.3837,2.3946,2.3952,2.3959,2.4005,2.4019,2.403,0,0,0,0,0,0,2.3573,2.3597,2.3584,2.366,2.3685,2.3707,2.3747,2.3732,2.3765,2.3759,2.3752,2.3759,2.3826,2.3838,2.3799,2.3917,2.3876,2.3885,2.3907,2.392,2.393,2.3925,2.3757,0,0,0,0,0,2.3592,2.3635,2.3653,2.3718,2.3731,2.3737,2.376,2.3755,2.378,2.379,2.3804,2.383,2.3869,2.3895,2.3932,2.4012,2.4016,2.4048,2.4058,2.4066,2.4074,2.4115,2.4129,2.3983,2.3983,2.3983,0,0,2.3632,2.365,2.3677,2.3728,2.3746,2.379,2.3746,2.3794,2.3826,2.3798,2.3859,2.3871,2.3898,2.397,2.4003,2.3982,2.4116,2.4075,2.4081,2.4084,2.4123,2.4137,2.4149,2.3987,2.3987,2.3986,0,0,2.3726,2.3744,2.38,2.382,2.3848,2.3852,2.3865,2.3889,2.3895,2.3957,2.3936,2.3974,2.4043,2.4063,2.4082,2.4183,2.4165,2.4196,2.4249,2.4289,2.4301,2.4311,2.4346,2.4358,2.4204,2.4204,2.4204,0,2.3771,2.3836,2.3831,2.388,2.3903,2.3879,2.3935,2.3954,2.3994,2.4009,2.3986,2.4071,2.4088,2.4164,2.4188,2.4205,2.4219,2.4192,2.43,2.431,2.4319,2.4352,2.4365,2.4207,2.4207,2.4207,2.4206,0,2.389,2.3935,2.3977,2.4015,2.4043,2.4095,2.4097,2.4125,2.4117,2.4123,2.4186,2.4205,2.4245,2.4263,2.4256,2.4338,2.4324,2.4301,2.4258,2.4337,2.4367,2.438,2.4212,2.4211,2.421,2.4209,0,0,2.4013,2.4048,2.4063,2.408,2.411,2.4145,2.4196,2.4235,2.4259,2.4287,2.4329,2.4388,2.4366,2.4388,2.4382,2.4418,2.4495,2.439,2.4391,2.4408,2.4585,2.4601,2.4616,2.4484,2.4486,2.4488,2.4582,0,2.4108,2.4197,2.4194,2.4277,2.4318,2.4297,2.4341,2.4364,2.437,2.4406,2.4413,2.4454,2.4423,2.4436,2.447,2.4479,2.453,2.4472,2.4521,2.4523,2.4514,2.4632,2.465,2.4738,2.4594,2.4596,2.4598,0,2.423,2.4262,2.4349,2.4372,2.439,2.443,2.4465,2.45,2.4525,2.4527,2.4551,2.454,2.4591,2.4548,2.4618,2.4578,2.4598,2.4606,2.4609,2.4612,2.4564,2.4637,2.4766,2.4778,2.4617,2.4615,2.4614,0,2.4309,2.4375,2.4435,2.445,2.4479,2.4507,2.4521,2.4543,2.4567,2.4598,2.4613,2.4649,2.4669,2.4697,2.4696,2.4665,2.4766,2.4723,2.4768,2.4768,2.4789,2.4787,2.4921,2.4805,2.4804,2.4804,2.4804,0,2.4414,2.4468,2.4471,2.4508,2.4568,2.4563,2.4622,2.4632,2.4652,2.469,2.4674,2.471,2.4707,2.4743,2.4742,2.4799,2.4808,2.4811,2.481,2.4811,2.4811,2.4824,2.4817,2.4808,2.4807,2.4806,2.4805,0,2.4513,2.4517,2.4581,2.4603,2.461,2.4653,2.4671,2.4706,2.4711,2.4759,2.477,2.4778,2.482,2.4822,2.487,2.4869,2.4938,2.4931,2.4929,2.4927,2.4971,2.4966,2.5116,2.5135,2.5008,2.5009,2.501,0,2.4579,2.462,2.4646,2.4671,2.4686,2.4726,2.4749,2.4746,2.4772,2.4803,2.4834,2.4874,2.4906,2.4973,2.4982,2.5019,2.5011,2.5061,2.5017,2.5017,2.501,2.5007,2.5011,2.507,2.5071,2.5072,2.5073,0,2.4695,2.4695,2.473,2.4767,2.4796,2.4824,2.485,2.4871,2.4871,2.49,2.4943,2.4967,2.5016,2.5055,2.509,2.5103,2.5088,2.5087,2.5099,2.5101,2.5098,2.5099,2.4951,2.5084,2.5083,2.5082,2.5081,2.5081,2.4778,2.4813,2.4837,2.4877,2.4896,2.4921,2.4955,2.4964,2.4999,2.5039,2.5035,2.5082,2.5105,2.515,2.5166,2.5202,2.5185,2.5202,2.5207,2.5211,2.5215,2.5093,2.5209,2.5208,2.5208,2.5208,2.5208,0,2.4892,2.4907,2.4943,2.4981,2.5012,2.4996,2.5023,2.505,2.5092,2.5115,2.5146,2.5195,2.5233,2.5245,2.5282,2.5308,2.5302,2.5318,2.5315,2.5318,2.5229,2.5214,2.5322,2.5322,2.5322,2.5322,2.5322,2.5322,2.4955,2.5013,2.5016,2.5083,2.5097,2.5143,2.516,2.5182,2.5201,2.5255,2.5287,2.5295,2.5314,2.5352,2.5386,2.5388,2.5402,2.542,2.542,2.5336,2.5325,2.5313,2.53,2.5424,2.5424,2.5506,2.5507,2.5507]},{"header":{"parameterUnit":"m.s-1","parameterCategory":1,"la1":30.2991,"la2":30.254,"lo1":-89.0895,"lo2":-89.0444,"dy":0.0017,"dx":0.0017,"nx":28,"ny":28,"refTime":"2024-07-29T21:00:00:Z","depth":0,"parameterNumber":3,"parameterNumberName":"V-component_of_WINDS"},"data":[0,0,0,0,0,0,0,0,0,0,0,0,0,0,0,0,0,0,0,0,0,0,0,0,0,0,0,0,0,0,0,0,0,0,0,0,0,0,0,0,0,0,0,0,0,0,0,0,0,0,0,0,0,0,0,0,0,0,5.5425,5.5425,0,5.541,5.5409,5.5409,5.5331,5.5329,5.5328,5.5326,5.5311,5.5312,5.5314,0,0,0,0,0,0,0,0,0,0,0,0,0,5.5387,5.5388,5.5425,5.5425,5.5425,5.541,5.5409,5.5409,5.5332,5.5329,5.5327,5.5325,5.5311,5.5312,5.5314,0,0,0,0,0,0,0,0,0,0,0,0,0,5.5391,5.5389,5.5425,5.5384,5.538,5.541,5.5409,5.5409,5.5332,5.5329,5.5327,5.5324,5.531,5.5312,5.5314,5.5382,0,0,5.532,5.5321,0,0,0,0,0,0,0,0,5.5391,5.5393,5.539,5.5387,5.5383,5.5369,5.539,5.54,5.5333,5.535,5.5326,5.5323,5.5333,5.5333,5.5336,5.5381,5.538,5.532,5.5321,5.5322,5.5323,0,0,0,0,0,0,0,5.5391,5.5393,5.5419,5.539,5.5386,5.5366,5.5364,5.5392,5.5357,5.5349,5.5343,5.5342,5.533,5.5334,5.5335,5.538,5.532,5.5322,5.5323,5.5324,5.5478,5.5481,0,0,0,0,0,0,5.5396,5.5393,5.5419,5.5418,5.538,5.5369,5.5367,5.5377,5.5357,5.5351,5.5345,5.5339,5.5332,5.5333,5.5334,5.541,5.5322,5.5324,5.5325,5.5475,5.5479,5.5482,0,0,0,0,0,0,5.5396,5.5399,5.542,5.5404,5.5405,5.5373,5.5385,5.5378,5.5381,5.5354,5.5347,5.5355,5.533,5.5331,5.537,5.5409,5.5325,5.5327,5.5472,5.5476,5.548,5.5564,0,0,0,0,0,0,5.5395,5.54,5.5425,5.5405,5.5406,5.5456,5.5387,5.5379,5.5385,5.5377,5.5362,5.5357,5.5328,5.5367,5.5372,5.541,5.5328,5.5468,5.5474,5.5479,5.5558,5.5571,5.5582,0,0,0,0,0,5.5394,5.545,5.5427,5.543,5.5437,5.5458,5.5459,5.5425,5.5389,5.5414,5.5396,5.5357,5.5404,5.5372,5.5376,5.5416,5.5465,5.5472,5.5478,5.5552,5.5568,5.5582,0,0,0,0,0,0,5.5475,5.5447,5.542,5.5472,5.5468,5.5445,5.5476,5.5443,5.545,5.5442,5.54,5.5397,5.5441,5.5433,5.5397,5.5479,5.5428,5.5436,5.5483,5.5498,5.551,5.551,5.533,0,0,0,0,0,5.5499,5.5519,5.5493,5.554,5.554,5.5509,5.5516,5.549,5.5485,5.5483,5.5468,5.5464,5.5478,5.5488,5.5499,5.5557,5.5552,5.5586,5.5598,5.5609,5.5615,5.5643,5.5658,5.5503,5.5503,5.5503,0,0,5.5549,5.5536,5.555,5.5556,5.555,5.5571,5.5508,5.5533,5.5547,5.5487,5.5521,5.5511,5.5504,5.5552,5.5572,5.5546,5.5657,5.5617,5.5625,5.5626,5.5652,5.5666,5.5679,5.5508,5.5507,5.5506,0,0,5.5649,5.5642,5.568,5.5675,5.5666,5.5645,5.5655,5.5637,5.5627,5.5661,5.5616,5.5633,5.5658,5.5654,5.5656,5.5755,5.5719,5.576,5.5823,5.5851,5.5863,5.5873,5.5907,5.5919,5.5767,5.5767,5.5767,0,5.5712,5.5741,5.5703,5.5731,5.5734,5.568,5.5718,5.5715,5.5711,5.5715,5.5686,5.5715,5.5707,5.5752,5.5776,5.578,5.5789,5.576,5.5864,5.5874,5.5884,5.5915,5.5928,5.5772,5.5771,5.5771,5.5771,0,5.5817,5.5838,5.5869,5.5866,5.5873,5.5906,5.5873,5.5885,5.5859,5.5841,5.5876,5.5864,5.5871,5.5881,5.5856,5.5923,5.5906,5.5872,5.5819,5.5904,5.5932,5.5944,5.5779,5.5777,5.5776,5.5775,0,0,5.5967,5.5942,5.5954,5.5951,5.5938,5.5953,5.5983,5.599,5.6,5.6,5.6023,5.6045,5.6013,5.6014,5.5989,5.6014,5.609,5.5975,5.5974,5.5995,5.6161,5.6186,5.6201,5.6067,5.607,5.6071,5.6161,0,5.606,5.6109,5.6076,5.613,5.6148,5.6098,5.6124,5.6119,5.6103,5.6116,5.6098,5.6114,5.6071,5.6071,5.6094,5.6076,5.6123,5.607,5.6088,5.6089,5.6088,5.6216,5.6242,5.6327,5.6172,5.6174,5.6176,0,5.6176,5.6179,5.6235,5.6217,5.6223,5.6247,5.6249,5.6263,5.6256,5.6243,5.6245,5.6212,5.624,5.619,5.6228,5.6192,5.6198,5.6191,5.6193,5.6191,5.6136,5.6216,5.6354,5.6366,5.6193,5.6192,5.6191,0,5.6276,5.6295,5.633,5.633,5.631,5.6328,5.6321,5.6311,5.6317,5.632,5.6323,5.633,5.6333,5.6339,5.6309,5.6276,5.635,5.6298,5.6338,5.6339,5.6354,5.6353,5.6493,5.6362,5.6362,5.6362,5.6362,0,5.6383,5.6418,5.6375,5.6396,5.6434,5.6397,5.6436,5.6423,5.6415,5.6433,5.6391,5.6409,5.637,5.6384,5.6361,5.6394,5.6397,5.6386,5.6379,5.6388,5.6389,5.639,5.6382,5.6365,5.6364,5.6364,5.6363,0,5.6501,5.6473,5.6508,5.6486,5.6482,5.6511,5.6492,5.6511,5.6493,5.6516,5.6519,5.6491,5.6505,5.6476,5.6487,5.6471,5.6518,5.6503,5.652,5.6514,5.6556,5.6552,5.6699,5.6716,5.6577,5.6578,5.6579,0,5.6569,5.6595,5.6576,5.6585,5.658,5.6595,5.66,5.6565,5.6572,5.6566,5.6585,5.6596,5.6602,5.6627,5.6607,5.6615,5.6598,5.6649,5.6599,5.6607,5.6596,5.6594,5.6596,5.6659,5.6661,5.6662,5.6663,0,5.6693,5.6678,5.6687,5.6691,5.6699,5.67,5.6699,5.6709,5.6671,5.6682,5.6695,5.67,5.6711,5.6721,5.6724,5.6717,5.6684,5.668,5.6689,5.6698,5.6705,5.67,5.6546,5.6676,5.6675,5.6674,5.6673,5.6672,5.6786,5.6806,5.6796,5.6807,5.6802,5.6802,5.6818,5.6802,5.6812,5.6817,5.6796,5.6814,5.6806,5.6807,5.6803,5.6817,5.6794,5.6808,5.6811,5.6815,5.682,5.6705,5.6818,5.6817,5.6817,5.6816,5.6816,0,5.6906,5.6897,5.6907,5.6906,5.6915,5.6884,5.6881,5.689,5.6906,5.6902,5.6908,5.6924,5.6934,5.6915,5.6922,5.6936,5.6921,5.6939,5.6937,5.6935,5.6842,5.6832,5.6951,5.6951,5.6951,5.6951,5.6951,5.6951,5.6969,5.7,5.6984,5.7013,5.7003,5.702,5.7021,5.702,5.7016,5.7035,5.7042,5.703,5.702,5.7025,5.7033,5.7028,5.7031,5.7054,5.7043,5.6955,5.6942,5.6929,5.692,5.7056,5.7056,5.7135,5.7136,5.7136]}]]